Time,TemperatureF,DewpointF,PressureIn,WindDirection,WindDirectionDegrees,WindSpeedMPH,WindSpeedGustMPH,Humidity,HourlyPrecipIn,Conditions,Clouds,dailyrainin,SoftwareType,DateUTC
2013-02-05 00:02:00,52.0,-99.9,-100.00,West,275,0.0,0.0,-999,-99.99,,,-99.99,,2013-02-05 06:02:00,
2013-02-05 00:11:00,52.0,-99.9,-100.00,West,275,0.0,0.0,-999,-99.99,,,-99.99,,2013-02-05 06:11:00,
2013-02-05 00:22:00,52.0,-99.9,-100.00,West,275,0.0,0.0,-999,-99.99,,,-99.99,,2013-02-05 06:22:00,
2013-02-05 00:32:00,52.0,-99.9,-100.00,West,275,0.0,0.0,-999,-99.99,,,-99.99,,2013-02-05 06:32:00,
2013-02-05 00:42:00,52.0,-99.9,-100.00,West,275,0.0,0.0,-999,-99.99,,,-99.99,,2013-02-05 06:42:00,
2013-02-05 00:52:00,52.0,-99.9,-100.00,West,275,0.0,0.0,-999,-99.99,,,-99.99,,2013-02-05 06:52:00,
2013-02-05 01:01:00,52.0,-99.9,-100.00,West,275,0.0,0.0,-999,-99.99,,,-99.99,,2013-02-05 07:01:00,
2013-02-05 01:12:00,52.0,-99.9,-100.00,West,275,0.0,0.0,-999,-99.99,,,-99.99,,2013-02-05 07:12:00,
2013-02-05 01:22:00,53.0,-99.9,-100.00,West,275,0.0,0.0,-999,-99.99,,,-99.99,,2013-02-05 07:22:00,
2013-02-05 01:32:00,53.0,-99.9,-100.00,West,275,0.0,0.0,-999,-99.99,,,-99.99,,2013-02-05 07:32:00,
2013-02-05 01:42:00,53.0,-99.9,-100.00,West,275,0.0,0.0,-999,-99.99,,,-99.99,,2013-02-05 07:42:00,
2013-02-05 01:52:00,53.0,-99.9,-100.00,West,275,0.0,0.0,-999,-99.99,,,-99.99,,2013-02-05 07:52:00,
2013-02-05 02:01:00,53.0,-99.9,-100.00,West,275,0.0,0.0,-999,-99.99,,,-99.99,,2013-02-05 08:01:00,
2013-02-05 02:11:00,53.0,-99.9,-100.00,West,275,0.0,0.0,-999,-99.99,,,-99.99,,2013-02-05 08:11:00,
2013-02-05 02:22:00,53.0,-99.9,-100.00,West,275,0.0,0.0,-999,-99.99,,,-99.99,,2013-02-05 08:22:00,
2013-02-05 02:32:00,53.0,-99.9,-100.00,West,275,0.0,0.0,-999,-99.99,,,-99.99,,2013-02-05 08:32:00,
2013-02-05 02:42:00,53.0,-99.9,-100.00,West,275,0.0,0.0,-999,-99.99,,,-99.99,,2013-02-05 08:42:00,
2013-02-05 02:52:00,53.0,-99.9,-100.00,West,275,0.0,0.0,-999,-99.99,,,-99.99,,2013-02-05 08:52:00,
2013-02-05 03:02:00,53.0,-99.9,-100.00,West,275,0.0,0.0,-999,-99.99,,,-99.99,,2013-02-05 09:02:00,
2013-02-05 03:12:00,53.0,-99.9,-100.00,West,275,0.0,0.0,-999,-99.99,,,-99.99,,2013-02-05 09:12:00,
2013-02-05 03:22:00,53.0,-99.9,-100.00,West,275,0.0,0.0,-999,-99.99,,,-99.99,,2013-02-05 09:22:00,
2013-02-05 03:32:00,53.0,-99.9,-100.00,West,275,0.0,0.0,-999,-99.99,,,-99.99,,2013-02-05 09:32:00,
2013-02-05 03:42:00,53.0,-99.9,-100.00,West,275,0.0,0.0,-999,-99.99,,,-99.99,,2013-02-05 09:42:00,
2013-02-05 03:52:00,53.0,-99.9,-100.00,West,275,0.0,0.0,-999,-99.99,,,-99.99,,2013-02-05 09:52:00,
2013-02-05 04:02:00,53.0,-99.9,-100.00,West,275,0.0,0.0,-999,-99.99,,,-99.99,,2013-02-05 10:02:00,
2013-02-05 04:11:00,53.0,-99.9,-100.00,West,275,0.0,0.0,-999,-99.99,,,-99.99,,2013-02-05 10:11:00,
2013-02-05 04:22:00,53.0,-99.9,-100.00,West,275,0.0,0.0,-999,-99.99,,,-99.99,,2013-02-05 10:22:00,
2013-02-05 04:32:00,53.0,-99.9,-100.00,West,275,0.0,0.0,-999,-99.99,,,-99.99,,2013-02-05 10:32:00,
2013-02-05 04:43:00,53.0,-99.9,-100.00,West,275,0.0,0.0,-999,-99.99,,,-99.99,,2013-02-05 10:43:00,
2013-02-05 04:52:00,53.0,-99.9,-100.00,West,275,0.0,0.0,-999,-99.99,,,-99.99,,2013-02-05 10:52:00,
2013-02-05 05:02:00,54.0,-99.9,-100.00,West,275,0.0,0.0,-999,-99.99,,,-99.99,,2013-02-05 11:02:00,
2013-02-05 05:11:00,54.0,-99.9,-100.00,West,275,0.0,0.0,-999,-99.99,,,-99.99,,2013-02-05 11:11:00,
2013-02-05 05:22:00,54.0,-99.9,-100.00,West,275,0.0,0.0,-999,-99.99,,,-99.99,,2013-02-05 11:22:00,
2013-02-05 05:32:00,54.0,-99.9,-100.00,West,275,0.0,0.0,-999,-99.99,,,-99.99,,2013-02-05 11:32:00,
2013-02-05 05:42:00,54.0,-99.9,-100.00,West,275,0.0,0.0,-999,-99.99,,,-99.99,,2013-02-05 11:42:00,
2013-02-05 05:53:00,54.0,-99.9,-100.00,West,275,0.0,0.0,-999,-99.99,,,-99.99,,2013-02-05 11:53:00,
2013-02-05 06:02:00,54.0,-99.9,-100.00,West,275,0.0,0.0,-999,-99.99,,,-99.99,,2013-02-05 12:02:00,
2013-02-05 06:12:00,54.0,-99.9,-100.00,West,275,0.0,0.0,-999,-99.99,,,-99.99,,2013-02-05 12:12:00,
2013-02-05 06:22:00,54.0,-99.9,-100.00,West,275,0.0,0.0,-999,-99.99,,,-99.99,,2013-02-05 12:22:00,
2013-02-05 06:32:00,54.0,-99.9,-100.00,West,275,0.0,0.0,-999,-99.99,,,-99.99,,2013-02-05 12:32:00,
2013-02-05 06:42:00,54.0,-99.9,-100.00,West,275,0.0,0.0,-999,-99.99,,,-99.99,,2013-02-05 12:42:00,
2013-02-05 06:52:00,54.0,-99.9,-100.00,West,275,0.0,0.0,-999,-99.99,,,-99.99,,2013-02-05 12:52:00,
2013-02-05 07:02:00,54.0,-99.9,-100.00,West,275,0.0,0.0,-999,-99.99,,,-99.99,,2013-02-05 13:02:00,
2013-02-05 07:12:00,54.0,-99.9,-100.00,West,275,0.0,0.0,-999,-99.99,,,-99.99,,2013-02-05 13:12:00,
2013-02-05 07:22:00,54.0,-99.9,-100.00,West,275,0.0,0.0,-999,-99.99,,,-99.99,,2013-02-05 13:22:00,
2013-02-05 07:32:00,54.0,-99.9,-100.00,West,275,0.0,0.0,-999,-99.99,,,-99.99,,2013-02-05 13:32:00,
2013-02-05 07:42:00,54.0,-99.9,-100.00,West,275,0.0,0.0,-999,-99.99,,,-99.99,,2013-02-05 13:42:00,
2013-02-05 07:52:00,54.0,-99.9,-100.00,West,275,0.0,0.0,-999,-99.99,,,-99.99,,2013-02-05 13:52:00,
2013-02-05 08:02:00,55.0,-99.9,-100.00,West,275,0.0,0.0,-999,-99.99,,,-99.99,,2013-02-05 14:02:00,
2013-02-05 08:12:00,55.0,-99.9,-100.00,West,275,0.0,0.0,-999,-99.99,,,-99.99,,2013-02-05 14:12:00,
2013-02-05 08:22:00,55.0,-99.9,-100.00,West,275,0.0,0.0,-999,-99.99,,,-99.99,,2013-02-05 14:22:00,
2013-02-05 08:32:00,55.0,-99.9,-100.00,West,275,0.0,0.0,-999,-99.99,,,-99.99,,2013-02-05 14:32:00,
2013-02-05 08:42:00,55.0,-99.9,-100.00,West,275,0.0,0.0,-999,-99.99,,,-99.99,,2013-02-05 14:42:00,
2013-02-05 08:52:00,56.0,-99.9,-100.00,West,275,0.0,0.0,-999,-99.99,,,-99.99,,2013-02-05 14:52:00,
2013-02-05 09:02:00,56.0,-99.9,-100.00,West,275,0.0,0.0,-999,-99.99,,,-99.99,,2013-02-05 15:02:00,
2013-02-05 09:11:00,56.0,-99.9,-100.00,West,275,0.0,0.0,-999,-99.99,,,-99.99,,2013-02-05 15:11:00,
2013-02-05 09:22:00,57.0,-99.9,-100.00,West,275,0.0,0.0,-999,-99.99,,,-99.99,,2013-02-05 15:22:00,
2013-02-05 09:32:00,59.0,-99.9,-100.00,SSE,147,0.0,2.0,-999,-99.99,,,-99.99,,2013-02-05 15:32:00,
2013-02-05 09:42:00,59.0,-99.9,-100.00,SSE,147,0.0,2.0,-999,-99.99,,,-99.99,,2013-02-05 15:42:00,
2013-02-05 09:52:00,59.0,-99.9,-100.00,SSE,147,0.0,2.0,-999,-99.99,,,-99.99,,2013-02-05 15:52:00,
2013-02-05 10:02:00,61.0,-99.9,-100.00,East,97,1.0,0.0,-999,-99.99,,,-99.99,,2013-02-05 16:02:00,
2013-02-05 10:12:00,61.0,-99.9,-100.00,East,97,1.0,0.0,-999,-99.99,,,-99.99,,2013-02-05 16:12:00,
2013-02-05 10:22:00,62.0,-99.9,-100.00,SE,132,0.0,0.0,-999,-99.99,,,-99.99,,2013-02-05 16:22:00,
2013-02-05 10:33:00,62.0,-99.9,-100.00,ENE,78,0.0,3.0,-999,-99.99,,,-99.99,,2013-02-05 16:33:00,
2013-02-05 10:42:00,62.0,-99.9,-100.00,ENE,78,0.0,3.0,-999,-99.99,,,-99.99,,2013-02-05 16:42:00,
2013-02-05 10:52:00,62.0,-99.9,-100.00,NE,39,0.0,0.0,-999,-99.99,,,-99.99,,2013-02-05 16:52:00,
2013-02-05 11:02:00,63.0,-99.9,-100.00,NNE,26,0.0,0.0,-999,-99.99,,,-99.99,,2013-02-05 17:02:00,
2013-02-05 11:12:00,63.0,-99.9,-100.00,NNE,26,0.0,0.0,-999,-99.99,,,-99.99,,2013-02-05 17:12:00,
2013-02-05 11:22:00,63.0,-99.9,-100.00,SSE,154,0.0,3.0,-999,-99.99,,,-99.99,,2013-02-05 17:22:00,
2013-02-05 11:33:00,63.0,-99.9,-100.00,East,85,0.0,0.0,-999,-99.99,,,-99.99,,2013-02-05 17:33:00,
2013-02-05 11:42:00,63.0,-99.9,-100.00,East,85,0.0,0.0,-999,-99.99,,,-99.99,,2013-02-05 17:42:00,
2013-02-05 11:53:00,63.0,-99.9,-100.00,East,85,0.0,0.0,-999,-99.99,,,-99.99,,2013-02-05 17:53:00,
2013-02-05 12:02:00,63.0,-99.9,-100.00,SSE,150,0.0,0.0,-999,-99.99,,,-99.99,,2013-02-05 18:02:00,
2013-02-05 12:12:00,63.0,-99.9,-100.00,SSE,150,0.0,0.0,-999,-99.99,,,-99.99,,2013-02-05 18:12:00,
2013-02-05 12:22:00,63.0,-99.9,-100.00,SSE,150,0.0,0.0,-999,-99.99,,,-99.99,,2013-02-05 18:22:00,
2013-02-05 12:32:00,65.0,-99.9,-100.00,SSE,165,0.0,0.0,-999,-99.99,,,-99.99,,2013-02-05 18:32:00,
2013-02-05 12:43:00,65.0,-99.9,-100.00,SSE,165,0.0,0.0,-999,-99.99,,,-99.99,,2013-02-05 18:43:00,
2013-02-05 12:52:00,66.0,-99.9,-100.00,SE,140,0.0,1.0,-999,-99.99,,,-99.99,,2013-02-05 18:52:00,
2013-02-05 13:02:00,64.0,-99.9,-100.00,SE,140,0.0,0.0,-999,-99.99,,,-99.99,,2013-02-05 19:02:00,
2013-02-05 13:11:00,64.0,-99.9,-100.00,SE,140,0.0,0.0,-999,-99.99,,,-99.99,,2013-02-05 19:11:00,
2013-02-05 13:22:00,65.0,-99.9,-100.00,SE,140,0.0,0.0,-999,-99.99,,,-99.99,,2013-02-05 19:22:00,
2013-02-05 13:32:00,65.0,-99.9,-100.00,SE,140,0.0,0.0,-999,-99.99,,,-99.99,,2013-02-05 19:32:00,
2013-02-05 13:42:00,65.0,-99.9,-100.00,SE,140,0.0,0.0,-999,-99.99,,,-99.99,,2013-02-05 19:42:00,
2013-02-05 13:52:00,66.0,-99.9,-100.00,SE,130,0.0,1.0,-999,-99.99,,,-99.99,,2013-02-05 19:52:00,
2013-02-05 14:02:00,68.0,-99.9,-100.00,East,84,0.0,1.0,-999,-99.99,,,-99.99,,2013-02-05 20:02:00,
2013-02-05 14:11:00,68.0,-99.9,-100.00,East,84,0.0,1.0,-999,-99.99,,,-99.99,,2013-02-05 20:11:00,
2013-02-05 14:22:00,67.0,-99.9,-100.00,East,84,0.0,0.0,-999,-99.99,,,-99.99,,2013-02-05 20:22:00,
2013-02-05 14:32:00,68.0,-99.9,-100.00,ENE,63,0.0,1.0,-999,-99.99,,,-99.99,,2013-02-05 20:32:00,
2013-02-05 14:42:00,68.0,-99.9,-100.00,ENE,63,0.0,1.0,-999,-99.99,,,-99.99,,2013-02-05 20:42:00,
2013-02-05 14:52:00,69.0,-99.9,-100.00,ENE,63,0.0,0.0,-999,-99.99,,,-99.99,,2013-02-05 20:52:00,
2013-02-05 15:02:00,68.0,-99.9,-100.00,NE,39,0.0,0.0,-999,-99.99,,,-99.99,,2013-02-05 21:02:00,
2013-02-05 15:11:00,68.0,-99.9,-100.00,NE,39,0.0,0.0,-999,-99.99,,,-99.99,,2013-02-05 21:11:00,
2013-02-05 15:22:00,68.0,-99.9,-100.00,NE,39,0.0,0.0,-999,-99.99,,,-99.99,,2013-02-05 21:22:00,
2013-02-05 15:32:00,68.0,-99.9,-100.00,NE,39,0.0,0.0,-999,-99.99,,,-99.99,,2013-02-05 21:32:00,
2013-02-05 15:42:00,68.0,-99.9,-100.00,NE,39,0.0,0.0,-999,-99.99,,,-99.99,,2013-02-05 21:42:00,
2013-02-05 15:52:00,67.0,-99.9,-100.00,NE,39,0.0,0.0,-999,-99.99,,,-99.99,,2013-02-05 21:52:00,
2013-02-05 16:02:00,67.0,-99.9,-100.00,NE,39,0.0,0.0,-999,-99.99,,,-99.99,,2013-02-05 22:02:00,
2013-02-05 16:12:00,67.0,-99.9,-100.00,NE,39,0.0,0.0,-999,-99.99,,,-99.99,,2013-02-05 22:12:00,
2013-02-05 16:22:00,66.0,-99.9,-100.00,NE,39,0.0,0.0,-999,-99.99,,,-99.99,,2013-02-05 22:22:00,
2013-02-05 16:32:00,65.0,-99.9,-100.00,NE,39,0.0,0.0,-999,-99.99,,,-99.99,,2013-02-05 22:32:00,
2013-02-05 16:42:00,65.0,-99.9,-100.00,NE,39,0.0,0.0,-999,-99.99,,,-99.99,,2013-02-05 22:42:00,
2013-02-05 16:52:00,65.0,-99.9,-100.00,NE,39,0.0,0.0,-999,-99.99,,,-99.99,,2013-02-05 22:52:00,
2013-02-05 17:02:00,64.0,-99.9,-100.00,NE,39,0.0,0.0,-999,-99.99,,,-99.99,,2013-02-05 23:02:00,
2013-02-05 17:12:00,64.0,-99.9,-100.00,NE,39,0.0,0.0,-999,-99.99,,,-99.99,,2013-02-05 23:12:00,
2013-02-05 17:22:00,63.0,-99.9,-100.00,NE,39,0.0,0.0,-999,-99.99,,,-99.99,,2013-02-05 23:22:00,
2013-02-05 17:33:00,63.0,-99.9,-100.00,NE,39,0.0,0.0,-999,-99.99,,,-99.99,,2013-02-05 23:33:00,
2013-02-05 17:42:00,63.0,-99.9,-100.00,NE,39,0.0,0.0,-999,-99.99,,,-99.99,,2013-02-05 23:42:00,
2013-02-05 17:53:00,62.0,-99.9,-100.00,NE,39,0.0,0.0,-999,-99.99,,,-99.99,,2013-02-05 23:53:00,
2013-02-05 18:02:00,62.0,-99.9,-100.00,NE,39,0.0,0.0,-999,-99.99,,,-99.99,,2013-02-06 00:02:00,
2013-02-05 18:12:00,62.0,-99.9,-100.00,NE,39,0.0,0.0,-999,-99.99,,,-99.99,,2013-02-06 00:12:00,
2013-02-05 18:22:00,61.0,-99.9,-100.00,NE,39,0.0,0.0,-999,-99.99,,,-99.99,,2013-02-06 00:22:00,
2013-02-05 18:33:00,61.0,-99.9,-100.00,NE,39,0.0,0.0,-999,-99.99,,,-99.99,,2013-02-06 00:33:00,
2013-02-05 18:43:00,61.0,-99.9,-100.00,NE,39,0.0,0.0,-999,-99.99,,,-99.99,,2013-02-06 00:43:00,
2013-02-05 18:52:00,59.0,-99.9,-100.00,NE,39,0.0,0.0,-999,-99.99,,,-99.99,,2013-02-06 00:52:00,
2013-02-05 19:02:00,59.0,-99.9,-100.00,NE,39,0.0,0.0,-999,-99.99,,,-99.99,,2013-02-06 01:02:00,
2013-02-05 19:12:00,59.0,-99.9,-100.00,NE,39,0.0,0.0,-999,-99.99,,,-99.99,,2013-02-06 01:12:00,
2013-02-05 19:22:00,58.0,-99.9,-100.00,NE,39,0.0,0.0,-999,-99.99,,,-99.99,,2013-02-06 01:22:00,
2013-02-05 19:33:00,58.0,-99.9,-100.00,NE,39,0.0,0.0,-999,-99.99,,,-99.99,,2013-02-06 01:33:00,
2013-02-05 19:43:00,58.0,-99.9,-100.00,NE,39,0.0,0.0,-999,-99.99,,,-99.99,,2013-02-06 01:43:00,
2013-02-05 19:53:00,56.0,-99.9,-100.00,NE,39,0.0,0.0,-999,-99.99,,,-99.99,,2013-02-06 01:53:00,
2013-02-05 20:02:00,56.0,-99.9,-100.00,NE,39,0.0,0.0,-999,-99.99,,,-99.99,,2013-02-06 02:02:00,
2013-02-05 20:12:00,56.0,-99.9,-100.00,NE,39,0.0,0.0,-999,-99.99,,,-99.99,,2013-02-06 02:12:00,
2013-02-05 20:22:00,55.0,-99.9,-100.00,NE,39,0.0,0.0,-999,-99.99,,,-99.99,,2013-02-06 02:22:00,
2013-02-05 20:32:00,54.0,-99.9,-100.00,NE,39,0.0,0.0,-999,-99.99,,,-99.99,,2013-02-06 02:32:00,
2013-02-05 20:43:00,54.0,-99.9,-100.00,NE,39,0.0,0.0,-999,-99.99,,,-99.99,,2013-02-06 02:43:00,
2013-02-05 20:53:00,53.0,-99.9,-100.00,NE,39,0.0,0.0,-999,-99.99,,,-99.99,,2013-02-06 02:53:00,
2013-02-05 21:03:00,53.0,-99.9,-100.00,NE,39,0.0,0.0,-999,-99.99,,,-99.99,,2013-02-06 03:03:00,
2013-02-05 21:12:00,53.0,-99.9,-100.00,NE,39,0.0,0.0,-999,-99.99,,,-99.99,,2013-02-06 03:12:00,
2013-02-05 21:22:00,52.0,-99.9,-100.00,NE,39,0.0,0.0,-999,-99.99,,,-99.99,,2013-02-06 03:22:00,
2013-02-05 21:33:00,52.0,-99.9,-100.00,NE,39,0.0,0.0,-999,-99.99,,,-99.99,,2013-02-06 03:33:00,
2013-02-05 21:43:00,52.0,-99.9,-100.00,NE,39,0.0,0.0,-999,-99.99,,,-99.99,,2013-02-06 03:43:00,
2013-02-05 21:53:00,52.0,-99.9,-100.00,NE,39,0.0,0.0,-999,-99.99,,,-99.99,,2013-02-06 03:53:00,
2013-02-05 22:02:00,52.0,-99.9,-100.00,NE,39,0.0,0.0,-999,-99.99,,,-99.99,,2013-02-06 04:02:00,
2013-02-05 22:12:00,52.0,-99.9,-100.00,NE,39,0.0,0.0,-999,-99.99,,,-99.99,,2013-02-06 04:12:00,
2013-02-05 22:22:00,51.0,-99.9,-100.00,NE,39,0.0,0.0,-999,-99.99,,,-99.99,,2013-02-06 04:22:00,
2013-02-05 22:32:00,51.0,-99.9,-100.00,NE,39,0.0,0.0,-999,-99.99,,,-99.99,,2013-02-06 04:32:00,
2013-02-05 22:42:00,51.0,-99.9,-100.00,NE,39,0.0,0.0,-999,-99.99,,,-99.99,,2013-02-06 04:42:00,
2013-02-05 22:52:00,51.0,-99.9,-100.00,NE,39,0.0,0.0,-999,-99.99,,,-99.99,,2013-02-06 04:52:00,
2013-02-05 23:02:00,51.0,-99.9,-100.00,NE,39,0.0,0.0,-999,-99.99,,,-99.99,,2013-02-06 05:02:00,
2013-02-05 23:12:00,51.0,-99.9,-100.00,NE,39,0.0,0.0,-999,-99.99,,,-99.99,,2013-02-06 05:12:00,
2013-02-05 23:22:00,51.0,-99.9,-100.00,NE,39,0.0,0.0,-999,-99.99,,,-99.99,,2013-02-06 05:22:00,
2013-02-05 23:32:00,50.0,-99.9,-100.00,NE,39,0.0,0.0,-999,-99.99,,,-99.99,,2013-02-06 05:32:00,
2013-02-05 23:42:00,50.0,-99.9,-100.00,NE,39,0.0,0.0,-999,-99.99,,,-99.99,,2013-02-06 05:42:00,
2013-02-05 23:53:00,50.0,-99.9,-100.00,NE,39,0.0,0.0,-999,-99.99,,,-99.99,,2013-02-06 05:53:00,